Probability
0 0 0 0 0 0 0 0 0 0 0 0 0 0 0 0 0 0 0 0 0 0 0 0 0 0 0 0 0 0 0 0 0 0 0 0 0 0 0 0 0 0 0 0
0 0 0 0 0 0 0 0 0 0 0 0 0 0 0 0 0 0 0 0 0 0 0 0 0 0 0 0 0 0 0 0 0 0 0 0 0 0 0 0 0 0 0 1
0 0 0 0 0 0 0 0 0 0 0 0 0 0 0 0 0 0 0 0 0 0 0 0 0 0 0 0 0 0 0 0 0 0 0 0 0 0 0 0 0 0 0 1
0 0 0 0 0 0 0 0 0 0 0 0 0 0 0 0 0 0 0 0 0 0 0 0 0 0 0 0 0 0 0 0 0 0 0 0 0 0 0 0 1 1 1 1
0 0 0 0 0 0 0 0 0 0 0 0 0 0 0 0 0 0 0 0 0 0 0 0 0 0 0 0 0 0 0 0 0 0 0 0 0 0 0 0 1 2 2 2
0 0 0 0 0 0 0 0 0 0 0 0 0 0 0 0 0 0 0 0 0 0 0 0 0 0 0 0 0 0 0 0 0 0 0 0 0 0 0 0 1 1 1 1
0 0 0 0 0 0 0 0 0 0 0 0 0 0 0 0 0 0 0 0 0 0 0 0 0 0 0 0 0 0 0 0 0 0 0 0 0 0 0 0 0 0 0 0
0 0 0 0 0 0 0 0 0 0 0 0 0 0 0 0 0 0 0 0 0 0 0 0 0 0 0 0 0 0 0 0 0 0 0 0 0 0 0 0 0 0 0 0
0 0 0 0 0 0 0 0 0 0 0 0 0 0 0 0 0 0 0 0 0 0 0 0 0 0 0 0 0 0 0 0 0 0 0 0 0 0 0 0 0 0 0 0
0 0 0 0 0 0 0 0 0 0 0 0 0 0 0 0 0 0 0 0 0 0 0 0 0 0 0 0 0 0 0 0 0 0 0 0 0 0 0 0 0 0 0 0
0 0 0 0 0 0 0 0 0 0 0 0 0 0 0 0 0 0 0 0 0 0 0 0 0 0 0 0 0 0 0 0 0 0 0 0 0 0 0 0 0 0 0 0
0 0 0 0 0 0 0 0 0 0 0 0 0 0 0 0 0 0 0 0 0 0 0 0 0 0 0 0 0 0 0 0 0 0 0 0 0 0 0 0 0 0 0 0
0 0 0 0 0 0 0 0 0 0 0 0 0 0 0 0 0 0 0 0 0 0 0 0 0 0 0 0 0 0 0 0 0 0 0 0 0 0 0 0 0 0 0 0
0 0 0 0 0 0 0 0 0 0 0 0 0 0 0 0 0 0 0 0 0 0 0 0 0 0 0 0 0 0 0 0 0 0 0 0 0 0 0 0 0 0 0 0
0 0 0 0 0 0 0 0 0 0 0 0 0 0 0 0 0 0 0 0 0 0 0 0 0 0 0 0 0 0 0 0 0 0 0 0 0 0 0 0 0 0 0 0
0 0 0 0 0 0 0 0 0 0 0 0 0 0 0 0 0 0 0 0 0 0 0 0 0 0 0 0 0 0 0 0 0 0 0 0 0 0 0 0 0 0 0 0
0 0 0 0 0 0 0 0 0 0 0 0 0 0 0 0 0 0 0 0 0 0 0 0 0 0 0 0 0 0 0 0 0 0 0 0 0 0 0 0 0 0 0 0
0 0 0 0 0 0 0 0 0 0 0 0 0 0 0 0 0 0 0 0 0 0 0 0 0 0 0 0 0 0 0 0 0 0 0 0 0 0 0 0 0 0 0 0
0 0 0 0 0 0 0 0 0 0 0 0 0 0 0 0 0 0 0 0 0 0 0 0 0 0 0 0 0 0 0 0 0 0 0 0 0 0 0 0 0 0 0 0
0 0 0 0 0 0 0 0 0 0 0 0 0 0 0 0 0 0 0 0 0 0 0 0 0 0 0 0 0 0 0 0 0 0 0 0 0 0 0 0 0 0 0 0
0 0 0 0 0 0 0 0 0 0 0 0 0 0 0 0 0 0 0 0 0 0 0 0 0 0 0 0 0 0 0 0 0 0 0 0 0 0 0 0 0 0 0 0
0 0 0 0 0 0 0 0 0 0 0 0 0 0 0 0 0 0 0 0 0 0 0 0 0 0 0 0 0 0 0 0 0 0 0 0 0 0 0 0 0 0 0 0
0 0 0 0 0 0 0 0 0 0 0 0 0 0 0 0 0 0 0 0 0 0 0 0 0 0 0 0 0 0 0 0 0 0 0 0 0 0 0 0 0 0 0 0
0 0 0 0 0 0 0 0 0 0 0 0 0 0 0 0 0 0 0 0 0 0 0 0 0 0 0 0 0 0 0 0 0 0 0 0 0 0 0 0 0 0 0 0
0 0 0 0 0 0 0 0 0 0 0 0 0 0 0 0 0 0 0 0 0 0 0 0 0 0 0 0 0 0 0 0 0 0 0 0 0 0 0 0 0 0 0 0
0 0 0 0 0 0 0 0 0 0 0 0 0 0 0 0 0 0 0 0 0 0 0 0 0 0 0 0 0 0 0 0 0 0 0 0 0 0 0 0 0 0 0 0
0 0 0 0 0 0 0 0 0 0 0 0 0 0 0 0 0 0 0 0 0 0 0 0 0 0 0 0 0 0 0 0 0 0 0 0 0 0 0 0 0 0 0 0
Wind_Speed
6 4 4 8 10 11 11 8 6 7 7 10 13 12 12 11 11 11 12 12 13 12 11 10 10 10 10 9 7 6 5 5 4 4 3 2 1 1 2 3 4 5 6 6
5 2 2 6 9 9 8 8 7 7 7 9 10 9 10 11 11 11 12 12 12 12 12 12 12 11 11 10 10 9 9 8 7 6 6 5 4 4 2 1 2 2 4 5
3 2 4 3 6 6 5 5 6 6 5 9 9 10 10 10 10 11 11 10 11 11 11 11 11 11 11 10 10 10 10 9 8 8 8 7 6 6 5 4 3 2 2 2
1 3 1 5 2 2 2 2 3 4 6 7 8 7 5 8 10 10 11 10 10 9 9 9 9 9 9 9 10 10 10 10 9 8 8 8 8 7 6 6 6 5 5 5
2 1 3 2 3 1 2 1 1 3 6 7 8 2 7 11 11 10 10 9 8 8 8 9 9 9 9 10 10 10 10 10 9 9 9 9 9 8 7 6 6 6 6 6
3 3 1 5 5 1 4 2 3 2 5 7 7 4 8 12 12 11 9 8 8 8 8 8 8 8 8 9 10 10 9 9 9 9 8 8 8 8 6 6 6 5 6 7
4 2 3 6 5 4 4 5 3 2 4 6 8 7 9 11 10 9 8 8 8 7 7 7 7 7 8 9 9 8 7 7 7 7 7 7 7 7 6 6 6 6 6 6
4 3 3 8 6 5 3 4 1 2 4 6 7 8 8 9 9 9 9 8 8 7 7 6 6 6 6 6 5 5 5 5 6 7 6 6 7 7 7 6 6 6 6 6
3 2 5 7 4 1 0 1 1 2 4 6 7 7 9 9 9 9 9 8 8 8 7 6 5 5 5 4 2 2 3 4 4 5 5 6 6 6 6 6 6 6 6 6
6 6 6 7 6 5 3 2 1 3 4 5 6 8 9 9 9 9 9 9 8 8 8 7 6 5 4 2 1 1 3 4 4 5 5 6 5 5 5 6 6 6 6 6
6 4 6 9 9 7 5 3 2 2 3 4 6 7 8 8 9 9 9 8 8 8 8 8 7 5 3 2 2 1 2 3 4 5 5 5 5 5 5 6 6 6 6 5
5 8 7 8 11 10 7 5 3 1 2 3 4 7 8 8 8 8 9 9 9 9 8 9 8 6 3 2 2 2 2 4 3 4 4 4 4 5 4 4 6 8 9 8
2 5 5 6 9 10 7 5 3 2 2 4 4 5 7 7 7 8 8 9 9 9 9 8 7 5 3 1 2 1 2 3 3 3 4 4 4 3 4 5 4 6 10 11
4 7 7 8 8 9 7 5 3 2 2 2 4 5 6 7 7 8 9 9 9 8 8 8 6 5 4 1 2 2 3 3 3 3 3 4 4 4 4 4 4 4 7 10
9 8 6 8 9 9 7 6 5 4 2 2 3 4 6 7 8 8 8 9 8 7 8 8 7 6 5 1 2 3 3 3 3 3 2 3 4 3 3 4 4 4 4 5
12 9 7 9 11 10 9 8 6 4 3 2 3 4 6 6 7 7 7 8 8 8 8 9 8 7 5 0 3 3 3 4 2 2 2 3 3 3 3 4 4 4 4 5
16 15 13 12 12 11 10 8 6 4 3 3 3 4 6 6 6 7 8 8 7 6 7 8 8 7 4 0 2 3 4 5 4 2 2 2 2 2 3 3 3 4 4 5
15 14 13 13 12 11 10 8 6 5 4 2 3 4 5 6 7 7 8 8 7 5 7 8 9 8 3 1 1 2 3 3 2 2 2 1 1 2 2 2 3 4 3 3
13 13 12 11 10 10 9 8 7 6 4 4 4 4 5 5 6 7 8 7 7 7 8 9 10 7 3 2 1 2 2 3 3 2 2 3 2 2 2 1 2 2 2 2
13 13 13 12 10 9 8 7 7 6 5 5 5 5 5 5 5 6 7 6 4 6 8 9 9 6 4 1 2 2 3 3 3 3 3 3 2 2 2 2 2 2 2 2
14 13 13 12 11 10 9 8 7 7 6 6 5 5 5 5 5 6 6 5 5 7 9 8 6 5 4 4 4 3 3 4 4 3 3 3 3 3 3 3 3 2 2 2
14 14 14 13 12 11 9 9 8 7 7 6 6 6 5 6 5 5 5 4 5 7 7 6 5 6 8 9 5 4 4 4 4 4 4 4 3 4 3 3 3 3 3 2
12 13 14 13 13 12 10 9 9 8 8 8 7 7 6 5 4 5 5 3 5 8 8 5 8 11 12 7 5 5 5 5 5 5 4 4 4 4 4 4 3 3 3 3
10 12 12 12 12 12 11 10 9 8 8 8 7 7 6 5 5 5 5 5 5 8 7 6 9 11 10 5 4 5 5 5 5 5 5 5 4 4 4 4 4 4 3 4
7 9 11 12 12 10 11 10 10 9 9 7 8 8 7 6 6 5 5 6 6 7 7 6 7 9 7 4 4 4 4 4 4 4 5 5 5 5 5 5 4 4 4 4
4 5 6 9 8 7 7 7 7 7 7 7 7 6 6 6 6 6 6 7 8 7 6 5 6 6 5 4 4 4 4 4 5 6 6 5 6 6 5 5 6 5 5 4
1 3 4 5 6 6 6 7 7 8 8 8 7 6 6 6 6 6 7 6 6 5 5 5 5 5 5 4 5 5 5 5 5 6 6 6 6 6 6 7 6 5 5 5
Wind_Direction
103 97 49 38 26 26 36 27 24 17 17 4 352 347 350 1 10 22 26 30 30 30 29 29 30 29 31 30 31 37 43 43 32 30 32 31 24 310 264 249 244 241 239 234
143 155 34 45 32 26 26 16 16 31 31 351 339 345 0 9 14 24 27 30 32 33 32 32 33 35 37 36 38 45 49 46 40 41 42 39 37 31 19 330 282 263 254 245
131 169 225 60 26 14 15 14 3 15 345 327 335 345 355 2 10 22 25 28 31 33 33 32 32 32 36 36 40 46 48 47 43 44 45 42 43 45 41 40 36 18 344 299
166 199 73 71 69 324 322 352 359 340 323 324 322 320 355 14 8 12 14 17 24 28 32 34 37 38 42 43 44 47 47 48 45 46 49 49 49 46 41 44 47 40 33 30
246 156 123 174 187 242 293 70 53 338 340 343 326 223 68 28 8 359 358 0 8 14 21 31 32 28 40 48 51 49 45 45 46 47 47 46 45 44 40 45 52 52 46 40
228 249 140 138 134 170 246 140 101 352 354 352 343 53 38 2 350 349 350 352 354 0 14 26 27 24 37 46 49 49 45 45 46 46 43 41 40 39 41 46 48 54 53 41
231 243 116 128 140 194 236 86 79 1 355 356 6 2 339 336 343 346 346 346 344 350 5 9 7 13 33 41 45 44 41 42 41 41 41 36 34 33 32 39 42 44 49 44
220 227 156 147 170 212 41 69 57 7 357 349 343 337 340 343 347 349 350 350 345 342 349 353 354 357 28 41 40 42 42 42 41 37 32 30 33 30 28 27 34 35 32 34
247 32 90 167 189 117 78 243 41 351 345 335 331 338 342 343 346 349 348 349 346 338 332 337 352 347 0 36 31 37 47 47 41 48 46 35 33 34 34 32 32 30 25 20
238 219 195 191 196 197 213 240 296 313 320 321 329 337 342 344 346 348 349 347 339 332 332 339 343 332 328 347 284 343 41 40 38 41 50 54 47 40 39 33 29 26 20 14
231 190 187 204 204 197 195 210 238 278 309 326 332 339 344 344 349 347 343 341 337 334 331 328 330 329 324 302 268 321 43 50 45 48 47 56 67 50 41 52 26 7 4 1
208 184 186 183 185 187 193 201 210 255 317 341 339 341 343 346 347 343 340 338 338 337 332 331 334 334 337 296 267 301 45 49 47 52 54 54 80 109 88 47 38 29 20 9
77 156 145 132 156 171 184 186 189 236 309 330 341 343 340 342 344 343 343 345 343 339 335 334 337 345 360 322 237 244 73 75 71 55 59 59 60 67 101 122 116 65 41 35
156 158 160 163 163 169 171 174 185 216 264 307 328 338 340 341 348 351 351 347 341 340 345 347 349 3 4 350 191 167 106 91 86 78 60 57 63 65 60 67 80 81 71 50
188 194 175 164 163 167 172 180 196 208 226 278 322 335 344 345 348 349 349 347 343 353 1 358 1 8 2 347 175 149 129 119 105 88 82 72 74 77 78 74 67 51 57 74
183 187 179 175 175 176 181 192 204 206 218 267 309 336 341 337 337 343 352 353 349 357 358 356 359 358 354 343 151 138 114 86 98 129 120 99 90 87 84 80 73 61 45 32
178 187 188 188 185 186 190 197 206 210 219 250 299 322 326 329 338 351 353 351 346 347 356 359 355 351 353 308 166 150 140 139 171 181 123 101 99 88 88 92 87 77 61 40
196 193 191 191 186 188 193 197 204 215 227 247 282 292 313 329 339 343 343 340 343 358 11 3 356 340 357 3 180 160 158 157 165 137 137 137 122 116 98 93 100 103 104 96
200 195 194 195 192 191 193 196 202 210 213 225 253 281 307 317 327 332 334 336 346 354 357 352 336 330 2 40 283 200 183 171 172 161 157 149 194 160 145 125 112 110 109 105
197 194 193 192 192 195 196 196 199 204 209 220 241 264 285 307 322 324 325 326 352 350 335 335 327 338 343 32 258 226 198 194 192 180 180 192 191 178 172 163 151 141 137 118
197 194 192 192 192 197 201 199 198 204 204 213 236 257 280 298 306 310 315 318 351 352 330 315 317 337 337 334 261 237 214 204 200 196 192 197 195 192 190 180 178 186 180 161
199 195 194 194 194 197 199 202 201 204 205 212 227 244 261 275 287 295 292 296 322 335 321 317 334 347 330 304 258 229 217 209 204 200 201 204 206 204 198 192 191 192 194 192
201 198 196 196 199 200 196 199 202 205 210 217 225 234 247 265 281 286 295 317 323 332 316 317 336 325 313 282 243 221 212 208 204 201 201 204 208 208 201 195 198 199 203 197
203 202 201 200 201 202 200 201 205 208 213 221 228 234 243 251 255 251 263 281 291 304 303 318 319 318 303 274 250 231 217 205 202 203 198 199 203 207 205 202 200 201 201 199
203 203 201 200 201 205 210 206 204 207 214 222 228 227 232 239 252 268 276 285 294 295 300 311 310 308 296 288 268 247 230 214 205 200 200 201 202 207 207 203 203 202 200 200
205 205 205 206 208 207 205 202 204 206 211 220 227 226 225 225 234 244 254 265 273 281 289 301 310 304 309 306 289 267 247 214 198 208 210 207 204 204 206 205 202 202 201 200
244 208 209 217 217 215 213 208 212 215 216 222 230 229 225 223 224 232 243 254 263 271 282 292 303 311 311 302 286 268 252 238 224 216 209 207 206 207 206 205 202 197 193 194